[Date Prev][Date Next][Thread Prev][Thread Next][Date Index][Thread Index]

[jamsat-news:1728] jas2info #281




========================   最新情報   ==============================

        Last updated  01Jul2002  19:30(JST)   #281

====================================================================
   
1)アマチュア通信衛星情報、FOシリーズの軌道要素、テレメトリ、QSOの
   状況等をまとめてみました.
   
 FO−29の2002年7月1日(月)の17:13(JST)のパスでは
JARLのホームページのとうりアナログ運用でした。 今日までの観測した
テレメトリーと最終の分析結果を報告しておきます。

AS28992C  01Jul2002
17:13-17:28(JST)
AOS   MEL  LOS  Elev
 25    99  171  33.2
Freq. 435.803-.786MHz
(JAS-2 No.104 B 2250-2920 )

HI HI AE 07 88 55 00 D4 1E A0 09 26 5E A0 6E 51 8E 8A 97 83 8E 8A 8D 8F 83 
HI HI AE 07 88 55 00 D4 1E A0 09 26 58 AA 72 4F 8F 8C 99 6B 8E 8A 8D 8F 84 
HI HI AE 07 88 55 00 D4 1E A0 09 26 55 B1 76 4B 91 8D 9B 75 8E 8B 8D 8F 84 
HI HI AE 07 88 55 00 D4 1E A0 09 26 54 B5 79 4B 93 8F 9C 6E 8E 8B 8D 8F 84 
HI HI AE 07 88 55 00 D4 1E A0 09 26 54 B7 7C 49 93 8F 9C 5A 8E 8B 8D 8F 84 
HI HI AE 07 88 55 00 D4 1E A0 09 26 58 B7 7F 48 93 8F 9C 7B 8E 8B 8D 8F 84 
HI HI AE 07 88 55 00 D4 1E A0 09 26 5C B5 7E 49 93 8E 9C 63 8E 8B 8E 8F 84 
HI HI AE 07 88 55 00 D4 1E A0 09 26 62 B2 7B 49 92 8E 9B 8C 8D 8B 8E 8F 84 
HI HI AE 07 88 55 00 D4 1E A0 09 26 69 AE 77 4C 91 8D 9A 6E 8E 8B 8E 8E 83 
HI HI AE 07 88 55 00 D4 1E A0 09 26 6F AB 77 4D 91 8D 9A 6B 8D 8B 8E 8E 83 
HI HI AE 07 88 55 00 D4 1E A0 09 26 76 A8 7B 4A 92 8E 9B 80 8D 8B 8E 8E 83 
HI HI AE 07 88 55 00 D4 1E A0 09 26 7A A6 7D 49 93 8E 9C 6D 8D 8B 8E 8E 84 
HI HI AE 07 88 55 00 D4 1E A0 09 26 7E A5 7D 48 93 8E 9C 77 8D 8B 8E 8E 83 
HI HI AE 07 88 55 00 D4 1E A0 09 26 7F A4 7D 49 92 8E 9C 8B 8D 8B 8E 8E 83 
HI HI AE 07 88 55 00 D4 1E A0 09 26 7F A3 7E 48 93 8F 9C 7F 8D 8B 8E 8D 83 
HI HI AE 07 88 55 00 D4 1E AG 09 26 7C A3 7D 48 92 8E 9B 7B 8D 8B 8E 8D 83 
HI HI AE 07 88 55 00 D4 1E A0 09 26 77 A3 78 4C 92 8D 9B 77 8D 8B 8E 8D 83 
HI HI AE 07 88 55 00 D4 1E A0 09 26 6F A2 75 4D 91 8D 9A 78 8D 8B 8D 8D 83 
HI HI AE 07 88 55 00 D4 1E A0 09 26 66 A1 77 4D 91 8D 9E 7A 8D 8B 8D 8D 83 
HI HI AE 07 88 55 00 D4 1E A0 09 26 5C 9E 77 4D 91 8D 9A 7C 8D 8B 8D 8D 83 

AS28939C  27Jun2002
19:07-19:11(JST)
AOS   MEL  LOS  Elev
354   291  229  21.5
Freq. 435.803-.800MHz
(JAS-2 No.104 B 2010-2250 )

HI HI AE 07 88 55 00 D4 53 FE 09 61 20 5E 68 54 8D 89 96 6A 8B 8C 91 8E 86 
HI HI AE 07 88 55 00 D4 53 FE 09 61 1D 61 67 54 8D 89 96 7B 8A 8C 91 8E 86 
HI HI AE 07 88 55 00 D4 53 FE 09 61 1D 63 65 55 8C 89 96 86 8A 8C 91 8E 86 
HI HI AE 07 88 55 00 D4 53 

AS28938C  27Jun2002
17:24-17:37(JST)
AOS   MEL  LOS  Elev
 23   100  175  37.8
Freq. 435.804-.786MHz
(JAS-2 No.104 B 1300-2010 )
 
HI HI AE 07 88 55 00 D4 84 AC 09 10 80 57 59 5B 89 86 93 5D 8E 90 90 8D 87 
HI HI AE 07 88 55 00 D4 84 AC 09 10 7A 5D 55 5E 89 86 92 70 8E 90 90 8D 87 
HI HI AE 07 88 55 00 D4 84 AC 09 10 74 63 52 5F 88 85 91 82 8F 90 90 8D 87 
HI HI AE 07 88 55 00 D4 84 AC 09 10 6E 69 51 5F 87 85 91 6A 8F 90 90 8D 87 
HI HI AE 07 88 55 00 D4 84 AC 09 10 68 6F 4F 60 87 84 90 79 8F 8F 90 8D 87 
HI HI AE 07 88 55 00 D4 84 AC 09 10 63 75 50 5F 87 84 90 72 8F 8F 90 8D 87 
HI HI AE 07 88 55 00 D4 84 AC 09 10 5E 7A 52 5E 86 83 8F 62 8F 8F 8F 8D 87 
HI HI AE 07 88 55 00 D4 84 AC 08 10 5A 7F 52 5E 86 84 90 81 8F 8F 8F 8D 87 
HI HI AE 07 88 55 00 D4 84 AC 09 10 57 83 56 5C 86 84 90 7C 8F 8F 8F 8D 87 
HI HI AE 07 88 55 00 D4 84 AC 09 10 54 86 58 5B 87 84 90 7F 8F 8F 8F 8D 87 
HI HI AE 07 88 55 00 D4 84 AC 09 10 52 89 57 5D 86 84 90 87 8F 8F 8F 8D 87 
HI HI AE 07 88 55 00 D4 84 AC 09 10 51 8B 5B 5C 86 84 90 7F 8F 8F 8F 8D 86 
HI HI AE 07 88 55 00 D4 84 AC 09 10 50 8D 5B 59 86 84 90 72 8F 8F 8F 8D 87 
HI HI AE 07 88 55 00 D4 84 AC 09 10 4F 8E 60 58 87 84 90 5B 8F 8F 8F 8D 87 
HI HI AE 07 88 55 00 D4 84 AC 09 10 4E 8F 62 55 87 85 91 86 8F 8F 8F 8D 87 
HI HI AE O7 88 55 00 D4 84 AC 09 10 4D 8F 63 56 88 85 91 85 8F 8F 8F 8D 87 
HI HI AE 07 88 55 00 D4 84 AC 09 10 4B 8F 65 55 89 85 92 77 8F 8F 8F 8D 87 
HI HI AE 07 88 55 00 D4 84 AC 09 10 4A 8F 66 54 89 86 92 7B 

AS28925C  26Jun2002
18:17-18:32(JST)
AOS   MEL  LOS  Elev
  8   283  202  64.6
Freq. 435.804-.785MHz
(JAS-2 No.104 B 330-1300 ) 

HI HI AE 07 88 55 00 D4 83 AC 09 23 7A B3 73 4D 8F 8B 98 84 8B 89 8E 8E 84 
HI HI AE 07 88 55 00 D4 83 AC 09 23 88 AD 6F 51 8E 8A 97 84 8B 89 8E 8E 84 
HI HI AE 07 88 55 00 D4 83 AC 09 23 94 A4 69 52 8D 89 96 7B 8B 8A 8E 8E 84 
HI HI AE 07 88 55 00 D4 83 AC 09 23 9E 9A 67 58 8D 89 95 5A 8B 8A 8E 8E 83 
HI HI AE 07 88 55 00 D4 83 AC 09 23 A5 90 62 5A 8C 88 94 80 8B 8A 8E 8E 83 
HI HI AE 07 8  55 00 D4 83 AC 09 23 AA 85 64 54 8B 87 94 80 8B 8A 8E 8E 84 
HI HI AE 07 88 55 00 D4 83 AC 09 23 AC 7C 61 56 8B 87 94 80 8B 8A 8E 8E 83 
HI HI AE 07 86 55 00 D4 83 AC 09 23 AC 75 61 57 8A 87 94 85 8B 89 8E 8E 83 
HI HI AE 07 88 55 00 D4 83 AC 09 23 AB 6F 60 57 8A 87 93 87 8B 89 8E 8D 84 
HI HI AE 07 88 55 00 D4 83 AC 09 23 A8 6C 64 55 8A 87 93 74 8A 89 8E 8E 84 
HI HI AE 07 88 55 00 D4 83 AC 09 23 A5 6B 69 54 8B 87 94 7C 8B 89 8E 8E 83 
HI HI AE 07 88 55 00 D4 83 AC 09 23 A1 6C 6E 4F 8D 89 95 6D 8A 89 8E 8E 84 
HI HI AE 07 88 55 00 DV 83 AC 09 23 9D 6F 72 4E 8E 89 97 6E 8A 89 8E 8E 84 
HI HI AE 07 88 55 00 D4 83 AC 09 33 9A 72 75 4D 90 8A 99 6e 8A 89 8E 8E 84 
HI HI AE 07 88 55 00 D4 83 AC 09 23 98 77 75 4C 91 8D 9A 6F 8B 89 8E 8E 84 
HI HI AE 07 88 55 00 D4 83 AC 09 23 96 7C 75 4C 91 8C 9A 87 8B 89 8E 8E 83 
HI HI AE 07 88 55 00 D4 83 AC 09 23 95 80 73 4D 90 8C 99 7A 8B 89 8E 8E 84 
HI HI AE 07 88 55 00 D4 83 AC 09 23 95 83 73 4E 90 8C 99 84 8B 89 8E 8E 84 
HI HI AE 07 88 55 00 D4 83 AC 09 23 96 84 6C 50 8F 8B 98 87 8B 89 8E 8E 84 
HI HI AE 07 88 55 00 D4 83 AC 09 23 98 84 67 54 8D 8A 96 88 8B 88 8E 8E 84

AS28911C  25Jun2002
18:27-18:41(JST)
AOS   MEL  LOS  Elev
 22    99  176  40.5
Freq. 435.804-.785MHz
(JAS-2 No.104 A  355  No.104 B 0-330) 

HI HI AE 07 88 55 00 D4 52 F0 09 44 69 81 63 5A 8B 88 94 67 8D 8C 8E 8D 83 
HI HI AE 07 88 55 00 D4 52 F0 09 44 5B 7D 61 58 8A 87 93 6A 8D 8C 8E 8D 83 
HI HI AE 07 88 55 00 d4 52 F0 09 44 4A 77 61 55 88 86 92 85 8D 8C 8E 8D 84 
HI HI AE 07 88 55 00 D4 52 F0 09 44 31 69 64 56 88 86 92 77 8D 8C 8D 8D 84 
HI HI AE 07 88 55 00 D4 52 F0 09 44 38 6E 66 55 89 86 93 7C 8D 8C 8D 8E 84 
HI HI AE 07 88 55 00 D4 52 F0 09 44 41 73 67 54 89 87 93 68 8D 8C 8D 8D 84 
HI HI AE 07 88 55 00 D4 52 F0 09 44 4C 7B 68 53 8A 87 94 6D 8E 8C 8D 8D 84 
HI HI AE 07 88 55 00 D4 52 F0 09 44 57 83 69 52 8B 88 95 76 8E 8C 8D 8D 84 
HI HI AE 07 88 55 00 D4 52 F0 09 44 62 8C 6E 51 8C 89 96 6C 8E 8C 8D 8D 84 
HI HI AE 07 88 55 00 D4 52 F0 08 44 6B 95 71 4E 8D 8B 98 6D 8E 8C 8D 8D 84 
HI HI AE 07 88 55 00 D4 52 F0 09 44 73 9C 6E 50 8F 8C 99 76 8E 8C 8D 8D 84 
HI HI AE 07 88 55 00 D4 52 F0 09 44 78 A1 6A 53 8F 8C 98 85 8E 8C 8D 8D 84 
HI HI AE 07 88 55 00 D4 52 F0 09 44 79 A4 68 55 8F 8B 98 67 8E 8C 8D 8D 84 
HI HI AE 07 88 55 00 D4 52 
  
------------------------ FO-29の軌道要素 ------------------------------        
 
  ■ 軌道要素1:「jamsat−keps:1216」より         
          SB KEPS @ AMSAT  $ORB02178.N
          2Line Orbital Elements 02178.AMSAT

HR AMSAT ORBITAL ELEMENTS FOR AMATEUR SATELLITES IN NASA FORMAT
FROM WA5QGD FORT WORTH,TX June 27, 2002
SEND SUBSCRIBE/UNSUBSCRIBE TO majordomo@amsat.org ONLY
BID: ORB02178.N

 DECODE 2-LINE ELSETS WITH THE FOLLOWING KEY:
 1 AAAAAU 00  0  0 BBBBB.BBBBBBBB  .CCCCCCCC  00000-0  00000-0 0  DDDZ
 2 AAAAA EEE.EEEE FFF.FFFF GGGGGGG HHH.HHHH III.IIII JJ.JJJJJJJJKKKKKZ
 KEY: A-CATALOGNUM B-EPOCHTIME C-DECAY D-ELSETNUM E-INCLINATION F-RAAN
 G-ECCENTRICITY H-ARGPERIGEE I-MNANOM J-MNMOTION K-ORBITNUM Z-CHECKSUM

FO-29
1 24278U 96046B   02177.95451259  .00000017  00000-0  50163-4 0 05112
2 24278 098.5158 356.6157 0351513 109.9605 253.9756 13.52844627289314

 ■ 軌道要素2:「jamsat−keps:12017」より
 
       SB KEPS @ AMSAT  $ORB02178.O
       Orbital Elements  02178.OSCAR

HR AMSAT ORBITAL ELEMENTS FOR OSCAR SATELLITES
FROM WA5QGD FORT WORTH,TX June 27, 2002
SEND SUBSCRIBE/UNSUBSCRIBE TO majordomo@amsat.org ONLY
BID: ORB02178.O
TO ALL RADIO AMATEURS BT
 
Satellite: FO-29
Catalog number: 24278
Epoch time:      02177.95451259
Element set:    0511
Inclination:      098.5158 deg
RA of node:       356.6157 deg
Eccentricity:    0.0351513
Arg of perigee:   109.9605 deg
Mean anomaly:     253.9756 deg
Mean motion:   13.52844627 rev/day
Decay rate:        1.7e-07 rev/day^2
Epoch rev:           28931
Checksum:              336

-------------------  FO-29(JAS-2)のテレメトリに関する情報  ---------------------- 
 
2)上記2002年7月1日(月)のテレメトリの最終行を分析しておきます.

AS28992C  01Jul2002
17:13-17:28(JST)
AOS   MEL  LOS  Elev
 25    99  171  33.2
Freq. 435.803-.786MHz
(JAS-2 No.104 B 2250-2920 )

HI HI AE 07 88 55 00 D4 1E A0 09 26 5C 9E 77 4D 91 8D 9A 7C 8D 8B 8D 8D 83 

テレメトリ   内 容         換算算値 単 位
3C	磁気センサーZ軸=	45098.0	[nT]
3D	磁気センサX軸	=	77451.0	[nT]
4A	太陽電池発生電流=	 1166.7	[mA]
4B	B充放電電流	=	 -490.8	[mA]
4C	B端子電圧	=	   15.6	[V]
4D	B中間端子電圧	=           6.8	[V]
5A	バス電圧	=	   15.1	[V]
5B	JTA送信電力	=	  707.9	[mW]
5C 	構体温度1	=	   27.1	[℃]
5D	構体温度2	=	   27.9	[℃]
6A	構体温度3	=	   27.1	[℃]
6B	構体温度4	=	   27.1	[℃]
6C	Bセル温度	=	   31.0	[℃]

 ========================== FO-29(ふじ3号)のテレメトリ分析、QSO情報等 =====================
   
 3)[jamsat-bb:

 =================================================================================================
 
 4)JARL のホームページに運用予定が記載されていましたのでご紹介します.
       ( http://www.jarl.or.jp/Japanese/3_Fuji/new/uy.htm )
       
        *** 運用予定について ***

   4月01日(月) 〜 6月30日(日)アナログ系運用 

  *なお,運用予定は都合により,変更することがありますので,あらかじめご了承願います。

 照会先 : lab@jarl.or.jp

 最新の情報はテレホンサービス(03−3942−1000)をお聞きください。  
 以後の運用につきましては平成14年7月上旬にお知らせいたします。        
     
-----------------------    FO−20(JAS-1b)道要素   -------------------------
  
  ■ 軌道要素1 :出典はFO-29「ふじ3号」に同じ.
  
FO-20
1 20480U 90013C   02178.63608394 -.00000019  00000-0  27949-4 0  4085
2 20480  99.0180 181.0812 0540335 178.4389 181.8555 12.83318003580256
 
  ■ 軌道要素2 :出典はFO−29「ふじ3号」に同じ.
               
